sat.trackr.live / text

‹ back to catalog

HULIANWANG DIGUI-139

NORAD 67437 · 2026-007C

PAYLOAD ACTIVE UNKNOWN

§ Identity

Operator
Country
PRC
Launch date
2026-01-13
Launch site
WSC
Launch vehicle
Mass (kg)
RCS (m²)

External: N2YO · Heavens-Above · Gunter

§ Orbital elements

Epoch: 2026-05-25T02:01:06.619296Z

Period
108.33 min
Inclination
50.0005°
Eccentricity
0.0000900
Mean motion
13.29307790 rev/d
Perigee alt
1,148.7 km
Apogee alt
1,150.1 km
Semi-major
7,527.5 km
B*
8.3250e-5
RAAN
168.7202°
Arg perigee
274.9601°
Mean anomaly
85.1168°
Rev number
1,771

§ Raw data

HULIANWANG DIGUI-1391 67437U 26007C   26145.08410439 -.00000085  00000+0  83250-4 0  99942 67437  50.0005 168.7202 0000900 274.9601  85.1168 13.29307790 17719

JSON: /api/v1/satellites/67437 · /tle

For live sub-satellite position, see the globe view (requires WebGL).

§ Visibility from observer

Set your observer location to see the next 7 days of passes ≥ 10°. The values pass through the URL so the page stays shareable.

No JS? Fill the form by hand. The geolocation button needs JavaScript.